IK4NOW-13 Weather Reports


time (UTC)temp
F
wind
direction
speed
knots
gust
knots
rain 1hr
in
rain 24hr
in
rain mn
in
humidity
%
barometer
mb
20260906080036 83 0.0 0.0 0.00 0.00 0.00 48 1022.2
20260906071532 81 0.0 0.0 0.00 0.00 0.00 45 1021.9
20260906063027 76 0.0 0.0 0.00 0.00 0.00 49 1021.6
20260906054523 74 0.0 0.0 0.00 0.00 0.00 49 1021.2
20260906050019 73 0.0 0.0 0.00 0.00 0.00 49 1020.9
20260906041514 73 0.0 0.0 0.00 0.00 0.00 49 1020.3
20260906033010 74 0.0 0.0 0.00 0.00 0.00 49 1019.9
20260906024505 74 0.0 0.0 0.00 0.00 0.00 48 1019.8
20260906020001 75 0.0 0.0 0.00 0.00 0.00 46 1019.3
20260906011456 75 0.0 0.0 0.00 0.00 0.00 46 1019.1
20260906002952 77 0.0 0.0 0.00 0.00 0.00 45 1019.0
20260905234448 77 0.0 0.0 0.00 0.00 0.00 45 1018.9
20260905225943 79 0.0 0.0 0.00 0.00 0.00 44 1018.8
20260905221439 80 0.0 0.0 0.00 0.00 0.00 43 1018.6
20260905212934 82 0.0 0.0 0.00 0.00 0.00 42 1018.3
20260905204430 83 0.0 0.0 0.00 0.00 0.00 42 1018.0
20260905195925 84 0.0 0.0 0.00 0.00 0.00 42 1017.9
20260905191421 85 0.0 0.0 0.00 0.00 0.00 42 1017.6
20260905182917 86 0.0 0.0 0.00 0.00 0.00 41 1017.1
20260905174412 87 0.0 0.0 0.00 0.00 0.00 40 1016.7
20260905165908 89 0.0 0.0 0.00 0.00 0.00 40 1016.4
20260905161404 91 0.0 0.0 0.00 0.00 0.00 39 1016.1
20260905152859 93 0.0 0.0 0.00 0.00 0.00 39 1016.0
20260905135850 95 0.0 0.0 0.00 0.00 0.00 38 1016.1
20260905131346 97 0.0 0.0 0.00 0.00 0.00 37 1016.3
20260905122841 96 0.0 0.0 0.00 0.00 0.00 37 1016.7
20260905114337 95 0.0 0.0 0.00 0.00 0.00 37 1017.1
20260905105833 93 0.0 0.0 0.00 0.00 0.00 38 1017.4
20260905101328 92 0.0 0.0 0.00 0.00 0.00 40 1017.4
20260905092824 90 0.0 0.0 0.00 0.00 0.00 41 1017.7
20260905084319 88 0.0 0.0 0.00 0.00 0.00 42 1017.5